[[{"header":{"parameterUnit":"m.s-1","parameterCategory":1,"la1":30.2991,"la2":30.254,"lo1":-89.0895,"lo2":-89.0444,"dy":0.0017,"dx":0.0017,"nx":28,"ny":28,"refTime":"2026-02-17T09:00:00:Z","depth":0,"parameterNumber":2,"parameterNumberName":"U-component_of_WINDS"},"data":[0,0,0,0,0,0,0,0,0,0,0,0,0,0,0,0,0,0,0,0,0,0,0,0,0,0,0,0,0,0,0,0,0,0,0,0,0,0,0,0,0,0,0,0,0,0,0,0,0,0,0,0,0,0,0,0,0,0,0.2201,0.2202,0,0.2281,0.2282,0.2283,0.2287,0.2286,0.2285,0.2284,0.2371,0.2375,0.2378,0,0,0,0,0,0,0,0,0,0,0,0,0,0.2056,0.2059,0.2201,0.2202,0.2203,0.2281,0.2282,0.2284,0.2287,0.2286,0.2284,0.2283,0.237,0.2374,0.2378,0,0,0,0,0,0,0,0,0,0,0,0,0,0.2126,0.206,0.2201,0.2214,0.2216,0.2281,0.2282,0.2284,0.2287,0.2286,0.2284,0.2283,0.2369,0.2374,0.2379,0.2438,0,0,0.2394,0.2396,0,0,0,0,0,0,0,0,0.2122,0.2131,0.2211,0.2213,0.2215,0.2272,0.2264,0.2336,0.2287,0.226,0.2284,0.2282,0.234,0.2347,0.2366,0.2442,0.2446,0.2394,0.2397,0.2399,0.24,0,0,0,0,0,0,0,0.2117,0.2128,0.2233,0.2212,0.2215,0.2218,0.2226,0.2277,0.2308,0.2262,0.2263,0.2272,0.2341,0.2361,0.2368,0.2447,0.2394,0.2398,0.2401,0.2403,0.2581,0.2582,0,0,0,0,0,0,0.2109,0.2124,0.223,0.2235,0.2164,0.2222,0.2231,0.2256,0.2307,0.2313,0.2273,0.2272,0.2353,0.2362,0.2371,0.2447,0.2399,0.2404,0.2406,0.2579,0.2581,0.2583,0,0,0,0,0,0,0.2106,0.2118,0.2227,0.218,0.2194,0.2226,0.2253,0.2258,0.2278,0.2315,0.2321,0.2288,0.2353,0.2364,0.2422,0.2449,0.2406,0.241,0.2577,0.2579,0.2582,0.2596,0,0,0,0,0,0,0.2102,0.2117,0.2138,0.218,0.2196,0.2275,0.2255,0.2261,0.2286,0.2285,0.233,0.2336,0.2352,0.2415,0.2427,0.2455,0.2414,0.2574,0.2578,0.2581,0.2594,0.2599,0.2604,0,0,0,0,0,0.2097,0.2139,0.2139,0.2152,0.2223,0.2276,0.2285,0.2301,0.2288,0.2311,0.2335,0.2335,0.2444,0.242,0.2434,0.2465,0.2573,0.2577,0.2581,0.2591,0.2598,0.2604,0,0,0,0,0,0,0.2101,0.2145,0.2145,0.2203,0.2236,0.2276,0.2305,0.2308,0.2346,0.2344,0.2364,0.2374,0.2432,0.2454,0.2427,0.2527,0.2507,0.2514,0.251,0.2517,0.2522,0.2517,0.2418,0,0,0,0,0,0.2109,0.2146,0.2183,0.223,0.2247,0.2273,0.2297,0.2307,0.2342,0.2356,0.2385,0.2421,0.2464,0.2491,0.2533,0.2596,0.2608,0.2625,0.263,0.2634,0.264,0.2679,0.2688,0.2596,0.2596,0.2596,0,0,0.2125,0.2153,0.2176,0.2232,0.2258,0.23,0.2285,0.2328,0.236,0.2363,0.242,0.2442,0.2484,0.2546,0.2575,0.2566,0.2668,0.2639,0.2642,0.2646,0.2684,0.2693,0.2701,0.2599,0.2598,0.2598,0,0,0.2176,0.22,0.2243,0.227,0.231,0.2328,0.2339,0.238,0.2395,0.2451,0.2456,0.2495,0.2567,0.2598,0.2623,0.2688,0.2691,0.2701,0.2729,0.2767,0.2774,0.2781,0.2807,0.2816,0.2707,0.2707,0.2707,0,0.2191,0.2251,0.2265,0.2309,0.2335,0.234,0.2386,0.2412,0.2464,0.2483,0.2472,0.2565,0.2593,0.2664,0.268,0.2699,0.2715,0.2697,0.2771,0.2778,0.2785,0.281,0.282,0.2708,0.2708,0.2708,0.2708,0,0.227,0.2311,0.2342,0.2392,0.2421,0.2466,0.2489,0.2518,0.2526,0.2546,0.2606,0.264,0.269,0.2707,0.2715,0.278,0.2774,0.2767,0.2748,0.2794,0.2819,0.2828,0.271,0.2709,0.2709,0.2709,0,0,0.2325,0.2383,0.2394,0.2419,0.2464,0.2498,0.2545,0.2592,0.2618,0.2654,0.2696,0.2758,0.2753,0.2781,0.2793,0.2826,0.288,0.2816,0.2817,0.2829,0.2958,0.2964,0.2975,0.2881,0.2883,0.2884,0.2955,0,0.2382,0.2463,0.2479,0.255,0.2591,0.2597,0.2638,0.2672,0.2693,0.2732,0.2756,0.2801,0.2789,0.2806,0.2839,0.2866,0.2906,0.2861,0.2923,0.2925,0.2914,0.2987,0.2993,0.3058,0.2964,0.2966,0.2967,0,0.246,0.2498,0.2573,0.2616,0.2634,0.267,0.2717,0.2754,0.2794,0.2807,0.284,0.2849,0.2901,0.2878,0.2952,0.2921,0.2947,0.2965,0.2968,0.2976,0.295,0.2999,0.3079,0.3089,0.2982,0.298,0.2979,0,0.2496,0.2566,0.2621,0.2641,0.2692,0.2718,0.2741,0.2779,0.2808,0.285,0.2869,0.2916,0.2943,0.2981,0.3003,0.2984,0.3077,0.3055,0.3091,0.3091,0.3112,0.311,0.3199,0.3125,0.3125,0.3125,0.3124,0,0.256,0.2606,0.2638,0.2672,0.2726,0.2745,0.2798,0.2821,0.2856,0.2896,0.2905,0.2943,0.297,0.3013,0.3031,0.3092,0.3103,0.3117,0.3122,0.3118,0.3116,0.3136,0.3133,0.3127,0.3127,0.3126,0.3126,0,0.2609,0.2632,0.2693,0.2736,0.2749,0.2786,0.2825,0.286,0.2881,0.2933,0.2946,0.2981,0.3032,0.3058,0.3122,0.3135,0.3204,0.3205,0.319,0.3192,0.3228,0.3225,0.3334,0.3351,0.3264,0.3265,0.3265,0,0.2648,0.2684,0.2733,0.276,0.2783,0.2827,0.2857,0.2878,0.2909,0.2959,0.2989,0.3041,0.3083,0.3166,0.3198,0.3248,0.3252,0.3287,0.326,0.3256,0.3256,0.3255,0.326,0.3292,0.3293,0.3294,0.3294,0,0.2718,0.2728,0.2769,0.2816,0.2851,0.2888,0.2926,0.2948,0.2976,0.3011,0.3064,0.3097,0.3163,0.3216,0.3269,0.3295,0.3301,0.3303,0.3314,0.3311,0.3302,0.331,0.3206,0.33,0.33,0.3299,0.3299,0.3299,0.2765,0.2799,0.2839,0.2885,0.2916,0.2951,0.2987,0.3013,0.3057,0.3112,0.3122,0.3179,0.3222,0.3294,0.3322,0.3369,0.3361,0.3377,0.3382,0.3386,0.3389,0.3293,0.3378,0.3378,0.3378,0.3378,0.3378,0,0.2837,0.2863,0.2906,0.2959,0.2996,0.2997,0.3039,0.3072,0.3121,0.316,0.3202,0.3264,0.3316,0.3353,0.3406,0.3437,0.3441,0.3451,0.345,0.3457,0.3391,0.3377,0.3447,0.3447,0.3447,0.3446,0.3446,0.3446,0.2879,0.2937,0.2952,0.3027,0.3053,0.3108,0.3133,0.3167,0.3198,0.3267,0.331,0.3333,0.3373,0.343,0.3479,0.3488,0.3509,0.3519,0.3529,0.3468,0.3461,0.3454,0.3441,0.3522,0.3522,0.3591,0.3591,0.3592]},{"header":{"parameterUnit":"m.s-1","parameterCategory":1,"la1":30.2991,"la2":30.254,"lo1":-89.0895,"lo2":-89.0444,"dy":0.0017,"dx":0.0017,"nx":28,"ny":28,"refTime":"2026-02-17T09:00:00:Z","depth":0,"parameterNumber":3,"parameterNumberName":"V-component_of_WINDS"},"data":[0,0,0,0,0,0,0,0,0,0,0,0,0,0,0,0,0,0,0,0,0,0,0,0,0,0,0,0,0,0,0,0,0,0,0,0,0,0,0,0,0,0,0,0,0,0,0,0,0,0,0,0,0,0,0,0,0,0,3.9398,3.9399,0,3.9529,3.953,3.9532,3.9557,3.9555,3.9554,3.9553,3.969,3.9694,3.9699,0,0,0,0,0,0,0,0,0,0,0,0,0,3.9169,3.9173,3.9398,3.9399,3.9401,3.9529,3.9531,3.9532,3.9557,3.9555,3.9554,3.9553,3.9688,3.9694,3.9699,0,0,0,0,0,0,0,0,0,0,0,0,0,3.9281,3.9174,3.9397,3.9428,3.9433,3.9528,3.9531,3.9533,3.9557,3.9555,3.9554,3.9552,3.9686,3.9693,3.97,3.9774,0,0,3.9721,3.9724,0,0,0,0,0,0,0,0,3.9275,3.9289,3.9422,3.9426,3.9431,3.9525,3.95,3.9614,3.9557,3.951,3.9553,3.9552,3.9636,3.9647,3.9675,3.9781,3.9787,3.9722,3.9726,3.9729,3.9731,0,0,0,0,0,0,0,3.9267,3.9284,3.945,3.9424,3.943,3.9436,3.945,3.9522,3.958,3.9514,3.9516,3.9531,3.9638,3.9669,3.9679,3.9789,3.9721,3.9728,3.9732,3.9735,3.9962,3.9964,0,0,0,0,0,0,3.9253,3.9277,3.9446,3.9454,3.9347,3.9441,3.9457,3.9496,3.958,3.9591,3.9532,3.9532,3.9657,3.9671,3.9684,3.9777,3.9729,3.9735,3.9739,3.9961,3.9963,3.9965,0,0,0,0,0,0,3.9248,3.9268,3.944,3.9366,3.9388,3.9447,3.9491,3.95,3.953,3.9594,3.9604,3.9552,3.9657,3.9674,3.9752,3.9782,3.9738,3.9745,3.9958,3.9961,3.9964,3.9964,0,0,0,0,0,0,3.9242,3.9266,3.9295,3.9367,3.9392,3.9506,3.9493,3.9503,3.9542,3.9542,3.9615,3.9626,3.9657,3.9741,3.9758,3.9791,3.975,3.9956,3.996,3.9963,3.9962,3.9967,3.9971,0,0,0,0,0,3.9233,3.929,3.9296,3.9317,3.943,3.9507,3.9522,3.9556,3.9544,3.9574,3.9614,3.9623,3.9775,3.9749,3.9769,3.9803,3.9954,3.9959,3.9963,3.996,3.9966,3.9971,0,0,0,0,0,0,3.9222,3.93,3.9308,3.9389,3.9441,3.9511,3.955,3.9562,3.9619,3.9617,3.9657,3.9673,3.9749,3.9784,3.9753,3.988,3.9864,3.9873,3.9855,3.9861,3.9866,3.9856,3.9756,0,0,0,0,0,3.9228,3.9285,3.935,3.9416,3.9442,3.9491,3.9526,3.9548,3.9604,3.9626,3.9673,3.9727,3.9787,3.9826,3.9884,3.9966,3.9983,4.0,4.0004,4.0008,4.0015,4.0061,4.007,3.9979,3.9979,3.9979,0,0,3.9243,3.9293,3.9326,3.9415,3.9458,3.9516,3.951,3.9571,3.9615,3.9636,3.9712,3.9748,3.9811,3.9891,3.9929,3.9923,4.0044,4.0013,4.0015,4.0021,4.0067,4.0075,4.0083,3.9982,3.9981,3.9981,0,0,3.93,3.9343,3.9403,3.9445,3.951,3.9542,3.9556,3.9625,3.9649,3.9726,3.9743,3.9795,3.9898,3.9942,3.9978,4.0051,4.0062,4.0069,4.0093,4.0138,4.0145,4.0151,4.0178,4.0187,4.0075,4.0075,4.0075,0,3.9311,3.9398,3.9432,3.9493,3.9531,3.9552,3.9613,3.9653,3.9733,3.976,3.9751,3.988,3.9924,4.0015,4.0032,4.006,4.0079,4.0061,4.0141,4.0148,4.0155,4.0181,4.019,4.0076,4.0076,4.0076,4.0076,0,3.9408,3.9469,3.9509,3.9586,3.9629,3.9689,3.9732,3.9772,3.9789,3.9822,3.99,3.9954,4.0024,4.0046,4.0064,4.014,4.0134,4.0133,4.0118,4.0163,4.0188,4.0198,4.0077,4.0076,4.0076,4.0076,0,0,3.9463,3.9557,3.9571,3.9606,3.9678,3.9726,3.9787,3.9855,3.9888,3.9943,3.9996,4.0081,4.008,4.0121,4.0144,4.0183,4.0237,4.0177,4.0179,4.0187,4.0325,4.0327,4.0338,4.0244,4.0246,4.0248,4.032,0,3.953,3.9639,3.9671,3.9764,3.982,3.9839,3.9893,3.9943,3.9975,4.0028,4.0064,4.0125,4.0118,4.0143,4.0182,4.0222,4.0266,4.0217,4.0295,4.0297,4.028,4.0351,4.0353,4.0419,4.033,4.0332,4.0333,0,3.9623,3.9678,3.9776,3.9841,3.9866,3.9913,3.9977,4.0027,4.0084,4.0105,4.015,4.0169,4.0234,4.0214,4.0305,4.0271,4.0304,4.0329,4.0332,4.0342,4.0319,4.0363,4.044,4.045,4.0349,4.0347,4.0346,0,3.9654,3.9753,3.9825,3.9854,3.9931,3.9964,3.9997,4.0053,4.0091,4.0148,4.0173,4.0236,4.0271,4.032,4.0356,4.0338,4.0444,4.0426,4.0464,4.0463,4.0486,4.0485,4.0571,4.0505,4.0505,4.0505,4.0505,0,3.9726,3.9785,3.984,3.9884,3.9951,3.9986,4.0052,4.0087,4.0136,4.0187,4.0207,4.0256,4.0299,4.0353,4.0382,4.0453,4.0468,4.0488,4.0495,4.0487,4.0484,4.051,4.0507,4.0508,4.0507,4.0507,4.0506,0,3.9773,3.9812,3.9891,3.9957,3.9975,4.0022,4.0078,4.0122,4.0154,4.0219,4.0236,4.0288,4.0352,4.0392,4.0475,4.0494,4.0572,4.0577,4.0553,4.0556,4.0592,4.0588,4.0699,4.0715,4.0637,4.0638,4.0639,0,3.9817,3.9864,3.9934,3.9969,4.0003,4.006,4.0099,4.0135,4.0175,4.0243,4.0279,4.0344,4.0399,4.0501,4.0546,4.0609,4.0617,4.0651,4.0627,4.0617,4.0619,4.0616,4.0621,4.0656,4.0656,4.0657,4.0657,0,3.9892,3.9908,3.9964,4.0026,4.0071,4.0122,4.0173,4.0201,4.0245,4.0289,4.0355,4.0397,4.048,4.0545,4.0612,4.0647,4.066,4.0664,4.0676,4.0669,4.0654,4.0664,4.0565,4.0662,4.0662,4.0661,4.0661,4.0661,3.994,3.9982,4.0038,4.0098,4.014,4.0186,4.0231,4.0268,4.0323,4.0393,4.0411,4.048,4.0536,4.0627,4.0663,4.0718,4.0713,4.0731,4.0735,4.0739,4.0741,4.0643,4.073,4.073,4.073,4.073,4.073,0,4.0017,4.0053,4.0108,4.0178,4.0226,4.0232,4.0288,4.0328,4.0388,4.0438,4.0491,4.0566,4.0629,4.0679,4.0744,4.0778,4.0786,4.0794,4.0793,4.0801,4.0741,4.0724,4.0787,4.0787,4.0787,4.0787,4.0787,4.0787,4.0062,4.0133,4.0156,4.0248,4.0284,4.0351,4.0383,4.0426,4.0467,4.055,4.0602,4.0633,4.0683,4.0752,4.081,4.0823,4.0846,4.0854,4.0868,4.0811,4.0805,4.0799,4.0784,4.0858,4.0858,4.0924,4.0925,4.0925]}]]